• In Germany
  • List of Countries
  • For 7 days
  • Water Temperature
  • Satellite Maps
  • Weather Map
  • Weather Widgets
  • user-avatar
    Login

    Hourly Weather Kitzbuhel

    Today, 23 June, Friday

    Time Temperature Precipitation Wind Pressure Humidity
    00:00 +17°C° 0.5 mm 2 mps 678 mmHg 82%
    01:00 +17°C° 0 mm 2 mps 678 mmHg 89%
    02:00 +16°C° 1.4 mm 2 mps 678 mmHg 89%
    03:00 +16°C° 1.4 mm 2 mps 678 mmHg 88%
    04:00 +16°C° 1.4 mm 3 mps 678 mmHg 88%
    05:00 +17°C° 1 mm 3 mps 678 mmHg 87%
    06:00 +19°C° 1 mm 3 mps 679 mmHg 85%
    07:00 +21°C° 0 mm 2 mps 679 mmHg 83%
    08:00 +22°C° 0.7 mm 3 mps 679 mmHg 78%
    09:00 +24°C° 0.7 mm 3 mps 680 mmHg 73%
    10:00 +25°C° 0.7 mm 3 mps 680 mmHg 67%
    11:00 +25°C° 0.9 mm 3 mps 680 mmHg 69%
    12:00 +25°C° 0.9 mm 3 mps 680 mmHg 71%
    13:00 +25°C° 0.9 mm 3 mps 680 mmHg 72%
    14:00 +25°C° 0.9 mm 3 mps 680 mmHg 74%
    15:00 +25°C° 0.9 mm 3 mps 680 mmHg 75%
    16:00 +24°C° 0.9 mm 2 mps 680 mmHg 77%
    17:00 +23°C° 0.6 mm 2 mps 680 mmHg 81%
    18:00 +21°C° 0.6 mm 2 mps 680 mmHg 85%
    19:00 +22°C° 0.6 mm 1 mps 680 mmHg 89%
    20:00 +20°C° 0.1 mm 1 mps 680 mmHg 91%
    21:00 +18°C° 0.1 mm 1 mps 680 mmHg 93%
    22:00 +15°C° 0.1 mm 1 mps 679 mmHg 95%
    23:00 +15°C° 0 mm 1 mps 679 mmHg 95%

    Tomorrow, 24 June, Saturday

    Time Temperature Precipitation Wind Pressure Humidity
    00:00 +15°C° 0 mm 1 mps 680 mmHg 95%
    01:00 +14°C° 0 mm 1 mps 680 mmHg 95%
    02:00 +14°C° 0 mm 1 mps 679 mmHg 95%
    03:00 +14°C° 0 mm 1 mps 679 mmHg 95%
    04:00 +13°C° 0 mm 1 mps 679 mmHg 96%
    05:00 +15°C° 0 mm 1 mps 679 mmHg 92%
    06:00 +16°C° 0 mm 0 mps 680 mmHg 88%
    07:00 +18°C° 0 mm 0 mps 680 mmHg 84%
    08:00 +21°C° 0 mm 1 mps 680 mmHg 78%
    09:00 +23°C° 0 mm 1 mps 681 mmHg 72%
    10:00 +24°C° 0 mm 1 mps 681 mmHg 66%
    11:00 +24°C° 0.2 mm 2 mps 681 mmHg 66%
    12:00 +25°C° 0.2 mm 2 mps 680 mmHg 67%
    13:00 +25°C° 0.2 mm 2 mps 680 mmHg 67%
    14:00 +25°C° 0.7 mm 2 mps 680 mmHg 71%
    15:00 +24°C° 0.7 mm 2 mps 679 mmHg 74%
    16:00 +24°C° 0.7 mm 2 mps 679 mmHg 78%
    17:00 +23°C° 0.6 mm 2 mps 679 mmHg 83%
    18:00 +22°C° 0.6 mm 1 mps 679 mmHg 88%
    19:00 +21°C° 0.6 mm 1 mps 679 mmHg 93%
    20:00 +19°C° 0.9 mm 1 mps 679 mmHg 94%
    21:00 +16°C° 0.9 mm 0 mps 679 mmHg 96%
    22:00 +14°C° 0.9 mm 0 mps 678 mmHg 98%
    23:00 +14°C° 1.4 mm 0 mps 678 mmHg 98%

    Day after tomorrow, 25 June, Sunday

    Time Temperature Precipitation Wind Pressure Humidity
    00:00 +14°C° 1.4 mm 0 mps 678 mmHg 98%
    01:00 +14°C° 1.4 mm 0 mps 678 mmHg 98%
    02:00 +14°C° 1.2 mm 0 mps 678 mmHg 98%
    03:00 +14°C° 1.2 mm 0 mps 677 mmHg 98%
    04:00 +14°C° 1.2 mm 0 mps 677 mmHg 98%
    05:00 +15°C° 1.3 mm 1 mps 677 mmHg 97%
    06:00 +16°C° 1.3 mm 1 mps 677 mmHg 97%
    07:00 +18°C° 1.3 mm 1 mps 678 mmHg 96%
    08:00 +16°C° 1.6 mm 1 mps 678 mmHg 95%
    09:00 +16°C° 1.6 mm 1 mps 678 mmHg 94%
    10:00 +16°C° 1.6 mm 1 mps 678 mmHg 94%
    11:00 +17°C° 0.7 mm 2 mps 678 mmHg 89%
    12:00 +18°C° 0.7 mm 2 mps 678 mmHg 84%
    13:00 +19°C° 0.7 mm 2 mps 678 mmHg 80%
    14:00 +19°C° 0.2 mm 2 mps 678 mmHg 77%
    15:00 +20°C° 0.2 mm 2 mps 678 mmHg 75%
    16:00 +20°C° 0.2 mm 2 mps 678 mmHg 72%
    17:00 +20°C° 0.1 mm 2 mps 678 mmHg 77%
    18:00 +20°C° 0.1 mm 1 mps 678 mmHg 82%
    19:00 +19°C° 0.1 mm 1 mps 678 mmHg 86%
    20:00 +16°C° 0 mm 1 mps 678 mmHg 90%
    21:00 +14°C° 0 mm 1 mps 677 mmHg 93%
    22:00 +11°C° 0 mm 1 mps 677 mmHg 96%
    23:00 +11°C° 0 mm 1 mps 677 mmHg 96%

    26 June, Monday

    Time Temperature Precipitation Wind Pressure Humidity
    00:00 +10°C° 0 mm 1 mps 677 mmHg 97%
    01:00 +10°C° 0 mm 1 mps 677 mmHg 97%
    02:00 +10°C° 0 mm 1 mps 677 mmHg 97%
    03:00 +10°C° 0 mm 1 mps 677 mmHg 97%
    04:00 +10°C° 0 mm 1 mps 677 mmHg 96%
    05:00 +11°C° 0 mm 0 mps 677 mmHg 92%
    06:00 +14°C° 0 mm 0 mps 678 mmHg 87%
    07:00 +16°C° 0 mm 0 mps 679 mmHg 83%
    08:00 +18°C° 0 mm 0 mps 679 mmHg 76%
    09:00 +21°C° 0 mm 1 mps 679 mmHg 69%
    10:00 +23°C° 0 mm 1 mps 679 mmHg 63%
    11:00 +24°C° 0 mm 1 mps 679 mmHg 61%
    12:00 +24°C° 0 mm 2 mps 679 mmHg 60%
    13:00 +25°C° 0 mm 2 mps 679 mmHg 59%
    14:00 +25°C° 0.2 mm 2 mps 678 mmHg 62%
    15:00 +25°C° 0.2 mm 2 mps 678 mmHg 65%
    16:00 +25°C° 0.2 mm 3 mps 678 mmHg 69%
    17:00 +24°C° 0.3 mm 2 mps 677 mmHg 75%
    18:00 +23°C° 0.3 mm 2 mps 677 mmHg 81%
    19:00 +21°C° 0.3 mm 2 mps 677 mmHg 87%
    20:00 +19°C° 0.2 mm 2 mps 677 mmHg 89%
    21:00 +18°C° 0.2 mm 2 mps 677 mmHg 91%
    22:00 +16°C° 0.2 mm 2 mps 676 mmHg 94%
    23:00 +16°C° 0.1 mm 2 mps 676 mmHg 93%

    27 June, Tuesday

    Time Temperature Precipitation Wind Pressure Humidity
    00:00 +16°C° 0.1 mm 2 mps 676 mmHg 92%
    01:00 +15°C° 0.1 mm 2 mps 676 mmHg 92%
    02:00 +15°C° 0 mm 2 mps 675 mmHg 91%
    03:00 +15°C° 0 mm 2 mps 675 mmHg 91%
    04:00 +15°C° 0 mm 2 mps 675 mmHg 91%
    05:00 +16°C° 0.1 mm 2 mps 675 mmHg 88%
    06:00 +17°C° 0.1 mm 2 mps 675 mmHg 86%
    07:00 +18°C° 0.1 mm 2 mps 676 mmHg 83%
    08:00 +20°C° 0.1 mm 2 mps 676 mmHg 76%
    09:00 +23°C° 0.1 mm 1 mps 676 mmHg 69%
    10:00 +25°C° 0.1 mm 1 mps 677 mmHg 61%
    11:00 +25°C° 0.4 mm 1 mps 676 mmHg 62%
    12:00 +26°C° 0.4 mm 1 mps 676 mmHg 62%
    13:00 +26°C° 0.4 mm 2 mps 676 mmHg 62%
    14:00 +26°C° 0.8 mm 2 mps 676 mmHg 64%
    15:00 +26°C° 0.8 mm 2 mps 675 mmHg 66%
    16:00 +26°C° 0.8 mm 2 mps 675 mmHg 68%
    17:00 +25°C° 0.6 mm 2 mps 675 mmHg 74%
    18:00 +24°C° 0.6 mm 2 mps 675 mmHg 80%
    19:00 +23°C° 0.6 mm 1 mps 674 mmHg 86%
    20:00 +20°C° 0 mm 2 mps 674 mmHg 88%
    21:00 +19°C° 0 mm 2 mps 674 mmHg 89%
    22:00 +17°C° 0 mm 3 mps 673 mmHg 90%
    23:00 +17°C° 0 mm 3 mps 673 mmHg 90%

    28 June, Wednesday

    Time Temperature Precipitation Wind Pressure Humidity
    00:00 +16°C° 0 mm 3 mps 673 mmHg 90%
    01:00 +16°C° 0 mm 3 mps 672 mmHg 90%
    02:00 +16°C° 0 mm 3 mps 672 mmHg 90%
    03:00 +16°C° 0 mm 3 mps 672 mmHg 90%
    04:00 +16°C° 0 mm 3 mps 672 mmHg 90%
    05:00 +17°C° 0 mm 3 mps 672 mmHg 87%
    06:00 +18°C° 0 mm 2 mps 672 mmHg 85%
    07:00 +20°C° 0 mm 2 mps 672 mmHg 82%
    08:00 +21°C° 0 mm 2 mps 673 mmHg 75%
    09:00 +24°C° 0 mm 2 mps 673 mmHg 68%
    10:00 +26°C° 0 mm 2 mps 673 mmHg 61%
    11:00 +26°C° 1 mm 2 mps 673 mmHg 64%
    12:00 +26°C° 1 mm 2 mps 673 mmHg 66%
    13:00 +26°C° 1 mm 2 mps 672 mmHg 69%
    14:00 +25°C° 1.8 mm 2 mps 672 mmHg 73%
    15:00 +24°C° 1.8 mm 2 mps 671 mmHg 77%
    16:00 +24°C° 1.8 mm 2 mps 671 mmHg 80%
    17:00 +23°C° 1.8 mm 2 mps 670 mmHg 84%
    18:00 +20°C° 1.8 mm 3 mps 670 mmHg 88%
    19:00 +19°C° 1.8 mm 3 mps 670 mmHg 91%
    20:00 +18°C° 0.3 mm 3 mps 669 mmHg 91%
    21:00 +17°C° 0.3 mm 3 mps 669 mmHg 91%
    22:00 +16°C° 0.3 mm 3 mps 668 mmHg 91%
    23:00 +16°C° 0.1 mm 3 mps 668 mmHg 91%
    Show more